Regional Weather Roundup
Issued by NWS Bismarck, ND

Home | Current Version | Previous Version | Text Only | Print | Product List | Glossary On
Versions: 1 2 3 4 5 6 7 8 9 10 11 12 13 14 15 16 17 18 19 20 21 22 23 24 25 26 27 28 29 30 31 32 33 34 35 36 37 38 39 40 41 42 43 44 45 46 47 48 49 50
000
ASUS43 KBIS 291801
RWRBIS

NWR BROADCAST TEXT
NATIONAL WEATHER SERVICE BISMARCK ND
1200 PM CST THU JAN 29 2015

NOTE: "FAIR" INDICATES FEW OR NO CLOUDS BELOW 12,000 FEET WITH NO
SIGNIFICANT WEATHER AND/OR OBSTRUCTIONS TO VISIBILITY.


CITY           SKY/WX    TMP DP  RH WIND       PRES   REMARKS
WILLISTON      CLOUDY    24  17  74 CALM      30.50S
MINOT          LGT SNOW  18  11  74 W21       30.50R WCI   1
MINOT AFB      FLURRIES  17  15  94 N7        30.50R WCI   7
BISMARCK       CLOUDY    29  20  69 N8        30.50R
DICKINSON      SUNNY     32  21  64 NW14      30.43S
GARRISON         N/A     24  19  81 N7        30.47S WCI  16
HETTINGER ARPT SUNNY     33  22  63 W10       30.46F
JAMESTOWN      LGT SNOW  19  12  74 NW16G23   30.48R WCI   4
CARRINGTON     FLURRIES  16  14  93 MISG      30.50R
CROSBY         CLOUDY    21  19  93 NW3       30.50S
HAZEN          CLOUDY    27  18  69 NW12      30.50F WCI  16
OAKES          FLURRIES  23  18  80 NW18G24   30.47R WCI   9
WATFORD CITY   MOCLDY    25  19  80 NW7       30.47S WCI  17
$$

CITY           SKY/WX    TMP DP  RH WIND       PRES   REMARKS
GRAND FORKS    LGT SNOW  12   7  79 N18       30.52R WCI  -5
GRAND FORKS AF PTSUNNY   12   3  67 N15G24    30.52R WCI  -4
DEVILS LAKE    CLOUDY    14   7  73 N15       30.49R WCI  -1
FARGO          CLOUDY    17   7  64 N22       30.50R WCI   0
GWINNER        CLOUDY    25  19  80 N18G24    30.48R WCI  11
$$

CITY           SKY/WX    TMP DP  RH WIND       PRES   REMARKS
ABERDEEN       CLOUDY    27  18  69 N22       30.49R WCI  13
MOBRIDGE       CLOUDY    32  20  61 N16       30.46S
BUFFALO          N/A     36  21  54 W10       30.40S
RAPID CITY     SUNNY     40  16  37 CALM      30.47S
GLASGOW        FOG       27  25  92 SE10      30.42F VSB<1/4 WCI  17
SIDNEY         MOSUNNY   28  21  74 SW3       30.51S
WOLF POINT     CLOUDY    27  25  93 CALM      30.47F FOG
GLENDIVE       SUNNY     30  25  80 S6        30.48S
MILES CITY     SUNNY     32  28  85 S7        30.46S
BAKER          SUNNY     32  26  78 NW7       30.46F
$$

CITY           SKY/WX    TMP DP  RH WIND       PRES   REMARKS
BILLINGS       SUNNY     37  25  61 SW10      30.40S
GREAT FALLS    MOSUNNY   41  26  55 SW10      30.31S
$$



USA.gov is the U.S. government's official web portal to all federal, state and local government web resources and services.